Time,TemperatureF,DewpointF,PressureIn,WindDirection,WindDirectionDegrees,WindSpeedMPH,WindSpeedGustMPH,Humidity,HourlyPrecipIn,Conditions,Clouds,dailyrainin,SoftwareType,DateUTC
2013-01-17 00:03:00,34.0,27.5,30.04,SW,225,0.0,0.1,77,0.00,OVC,,0.00,WeatherDisplay:10.37,2013-01-17 06:03:00,
2013-01-17 00:08:00,34.0,27.5,30.04,SSW,202,0.0,0.0,77,0.00,OVC,,0.00,WeatherDisplay:10.37,2013-01-17 06:08:00,
2013-01-17 00:13:00,34.0,27.8,30.04,SW,225,1.3,1.3,78,0.00,OVC,,0.00,WeatherDisplay:10.37,2013-01-17 06:13:00,
2013-01-17 00:18:00,34.0,27.8,30.04,WSW,248,0.0,0.1,78,0.00,OVC,,0.00,WeatherDisplay:10.37,2013-01-17 06:18:00,
2013-01-17 00:23:00,33.8,27.7,30.05,South,180,0.0,0.1,78,0.00,OVC,,0.00,WeatherDisplay:10.37,2013-01-17 06:23:00,
2013-01-17 00:28:00,33.6,27.5,30.05,SSE,158,1.4,1.4,78,0.00,OVC,,0.00,WeatherDisplay:10.37,2013-01-17 06:28:00,
2013-01-17 00:33:00,33.6,27.5,30.05,South,180,2.3,2.3,78,0.00,OVC,,0.00,WeatherDisplay:10.37,2013-01-17 06:33:00,
2013-01-17 00:38:00,33.6,27.8,30.05,South,180,1.2,1.2,79,0.00,OVC,,0.00,WeatherDisplay:10.37,2013-01-17 06:38:00,
2013-01-17 00:43:00,33.6,27.8,30.06,West,270,2.3,2.3,79,0.00,OVC,,0.00,WeatherDisplay:10.37,2013-01-17 06:43:00,
2013-01-17 00:48:00,33.6,27.8,30.06,South,180,0.0,0.3,79,0.00,OVC,,0.00,WeatherDisplay:10.37,2013-01-17 06:48:00,
2013-01-17 00:53:00,33.6,27.8,30.06,SW,225,1.2,1.2,79,0.00,OVC,,0.00,WeatherDisplay:10.37,2013-01-17 06:53:00,
2013-01-17 00:58:00,33.6,27.8,30.06,SW,225,1.2,1.2,79,0.00,OVC,,0.00,WeatherDisplay:10.37,2013-01-17 06:58:00,
2013-01-17 01:03:00,33.8,28.0,30.07,WSW,248,2.3,2.3,79,0.00,OVC,,0.00,WeatherDisplay:10.37,2013-01-17 07:03:00,
2013-01-17 01:08:00,33.8,28.3,30.07,SE,135,0.0,0.5,80,0.00,OVC,,0.00,WeatherDisplay:10.37,2013-01-17 07:08:00,
2013-01-17 01:13:00,34.0,28.5,30.07,SSE,158,0.0,0.2,80,0.00,OVC,,0.00,WeatherDisplay:10.37,2013-01-17 07:13:00,
2013-01-17 01:18:00,34.0,28.5,30.07,SW,225,1.4,1.4,80,0.00,OVC,,0.00,WeatherDisplay:10.37,2013-01-17 07:18:00,
2013-01-17 01:23:00,34.0,28.5,30.08,South,180,2.3,2.3,80,0.00,OVC,,0.00,WeatherDisplay:10.37,2013-01-17 07:23:00,
2013-01-17 01:28:00,33.8,28.3,30.08,WSW,248,1.2,1.2,80,0.00,OVC,,0.00,WeatherDisplay:10.37,2013-01-17 07:28:00,
2013-01-17 01:33:00,34.0,28.5,30.08,NW,315,2.3,2.3,80,0.00,OVC,,0.00,WeatherDisplay:10.37,2013-01-17 07:33:00,
2013-01-17 01:38:00,34.0,28.5,30.08,WSW,248,2.3,2.3,80,0.00,OVC,,0.00,WeatherDisplay:10.37,2013-01-17 07:38:00,
2013-01-17 01:43:00,34.2,28.6,30.09,WNW,292,3.5,3.5,80,0.00,OVC,,0.00,WeatherDisplay:10.37,2013-01-17 07:43:00,
2013-01-17 01:48:00,34.0,28.2,30.09,WSW,248,1.2,1.2,79,0.00,OVC,,0.00,WeatherDisplay:10.37,2013-01-17 07:48:00,
2013-01-17 01:53:00,34.0,28.2,30.09,West,270,2.3,2.3,79,0.00,OVC,,0.00,WeatherDisplay:10.37,2013-01-17 07:53:00,
2013-01-17 01:58:00,34.0,28.2,30.09,WSW,248,1.2,1.2,79,0.00,OVC,,0.00,WeatherDisplay:10.37,2013-01-17 07:58:00,
2013-01-17 02:03:00,33.4,27.6,30.09,West,270,3.5,3.5,79,0.00,OVC,,0.00,WeatherDisplay:10.37,2013-01-17 08:03:00,
2013-01-17 02:08:00,33.4,27.6,30.09,West,270,1.2,1.2,79,0.00,OVC,,0.00,WeatherDisplay:10.37,2013-01-17 08:08:00,
2013-01-17 02:13:00,33.3,27.8,30.09,WSW,248,1.2,1.2,80,0.00,OVC,,0.00,WeatherDisplay:10.37,2013-01-17 08:13:00,
2013-01-17 02:18:00,33.3,27.8,30.09,SSW,202,1.2,1.2,80,0.00,OVC,,0.00,WeatherDisplay:10.37,2013-01-17 08:18:00,
2013-01-17 02:23:00,33.3,27.8,30.10,WNW,292,0.0,0.3,80,0.00,OVC,,0.00,WeatherDisplay:10.37,2013-01-17 08:23:00,
2013-01-17 02:28:00,33.3,27.8,30.10,NW,315,0.0,0.2,80,0.00,OVC,,0.00,WeatherDisplay:10.37,2013-01-17 08:28:00,
2013-01-17 02:33:00,33.1,27.6,30.10,WSW,248,0.0,0.1,80,0.00,OVC,,0.00,WeatherDisplay:10.37,2013-01-17 08:33:00,
2013-01-17 02:38:00,33.3,27.8,30.10,South,180,0.0,0.0,80,0.00,OVC,,0.00,WeatherDisplay:10.37,2013-01-17 08:38:00,
2013-01-17 02:43:00,33.3,28.1,30.10,South,180,0.0,0.2,81,0.00,OVC,,0.00,WeatherDisplay:10.37,2013-01-17 08:43:00,
2013-01-17 02:48:00,33.3,28.1,30.10,SSW,202,0.0,0.2,81,0.00,OVC,,0.00,WeatherDisplay:10.37,2013-01-17 08:48:00,
2013-01-17 02:53:00,33.3,28.1,30.10,WSW,248,0.0,0.1,81,0.00,OVC,,0.00,WeatherDisplay:10.37,2013-01-17 08:53:00,
2013-01-17 02:58:00,33.3,28.1,30.10,West,270,0.0,0.0,81,0.00,OVC,,0.00,WeatherDisplay:10.37,2013-01-17 08:58:00,
2013-01-17 03:03:00,33.3,28.1,30.11,West,270,0.0,0.0,81,0.00,OVC,,0.00,WeatherDisplay:10.37,2013-01-17 09:03:00,
2013-01-17 03:08:00,33.3,28.1,30.11,NW,315,0.0,0.0,81,0.00,OVC,,0.00,WeatherDisplay:10.37,2013-01-17 09:08:00,
2013-01-17 03:13:00,33.3,28.1,30.11,WSW,248,0.0,0.0,81,0.00,OVC,,0.00,WeatherDisplay:10.37,2013-01-17 09:13:00,
2013-01-17 03:18:00,33.3,28.4,30.11,West,270,0.0,0.0,82,0.00,OVC,,0.00,WeatherDisplay:10.37,2013-01-17 09:18:00,
2013-01-17 03:23:00,33.3,28.4,30.11,NW,315,2.3,2.3,82,0.00,OVC,,0.00,WeatherDisplay:10.37,2013-01-17 09:23:00,
2013-01-17 03:28:00,34.0,29.4,30.11,NW,315,3.3,3.3,83,0.00,OVC,,0.00,WeatherDisplay:10.37,2013-01-17 09:28:00,
2013-01-17 03:33:00,34.2,29.5,30.11,NW,315,4.6,4.6,83,0.00,OVC,,0.00,WeatherDisplay:10.37,2013-01-17 09:33:00,
2013-01-17 03:38:00,34.7,30.1,30.11,WNW,292,2.6,2.6,83,0.00,OVC,,0.00,WeatherDisplay:10.37,2013-01-17 09:38:00,
2013-01-17 03:43:00,34.9,30.2,30.11,NW,315,2.3,2.3,83,0.00,OVC,,0.00,WeatherDisplay:10.37,2013-01-17 09:43:00,
2013-01-17 03:48:00,35.1,30.4,30.11,NW,315,3.1,3.1,83,0.00,OVC,,0.00,WeatherDisplay:10.37,2013-01-17 09:48:00,
2013-01-17 03:53:00,34.9,30.2,30.11,North,0,4.6,4.6,83,0.00,OVC,,0.00,WeatherDisplay:10.37,2013-01-17 09:53:00,
2013-01-17 03:58:00,34.9,30.2,30.11,NNW,338,3.5,3.5,83,0.00,OVC,,0.00,WeatherDisplay:10.37,2013-01-17 09:58:00,
2013-01-17 04:03:00,35.1,30.4,30.12,NW,315,4.6,4.6,83,0.00,OVC,,0.00,WeatherDisplay:10.37,2013-01-17 10:03:00,
2013-01-17 04:08:00,35.4,30.8,30.12,NNW,338,3.5,4.0,83,0.00,OVC,,0.00,WeatherDisplay:10.37,2013-01-17 10:08:00,
2013-01-17 04:13:00,35.4,30.5,30.12,NW,315,5.8,5.8,82,0.00,OVC,,0.00,WeatherDisplay:10.37,2013-01-17 10:13:00,
2013-01-17 04:18:00,35.1,30.4,30.12,NNW,338,4.6,4.6,83,0.00,OVC,,0.00,WeatherDisplay:10.37,2013-01-17 10:18:00,
2013-01-17 04:23:00,35.1,30.4,30.13,NW,315,5.8,5.8,83,0.00,OVC,,0.00,WeatherDisplay:10.37,2013-01-17 10:23:00,
2013-01-17 04:29:00,34.9,30.2,30.13,NNW,338,6.4,6.4,83,0.00,OVC,,0.00,WeatherDisplay:10.37,2013-01-17 10:29:00,
2013-01-17 04:34:00,34.9,30.2,30.13,NNW,338,4.7,4.7,83,0.00,OVC,,0.00,WeatherDisplay:10.37,2013-01-17 10:34:00,
2013-01-17 04:39:00,34.9,30.2,30.13,NNE,22,5.8,5.8,83,0.00,OVC,,0.00,WeatherDisplay:10.37,2013-01-17 10:39:00,
2013-01-17 04:44:00,34.7,29.5,30.14,NNW,338,6.9,6.9,81,0.00,OVC,,0.00,WeatherDisplay:10.37,2013-01-17 10:44:00,
2013-01-17 04:49:00,34.3,28.5,30.14,NNE,22,4.6,4.8,79,0.00,OVC,,0.00,WeatherDisplay:10.37,2013-01-17 10:49:00,
2013-01-17 04:54:00,34.2,27.7,30.14,NW,315,6.9,6.9,77,0.00,OVC,,0.00,WeatherDisplay:10.37,2013-01-17 10:54:00,
2013-01-17 04:59:00,34.2,27.1,30.14,NNE,22,8.1,8.1,75,0.00,OVC,,0.00,WeatherDisplay:10.37,2013-01-17 10:59:00,
2013-01-17 05:04:00,34.2,26.7,30.15,NNW,338,10.4,10.4,74,0.00,OVC,,0.00,WeatherDisplay:10.37,2013-01-17 11:04:00,
2013-01-17 05:09:00,34.0,26.2,30.15,NW,315,5.6,5.6,73,0.00,OVC,,0.00,WeatherDisplay:10.37,2013-01-17 11:09:00,
2013-01-17 05:14:00,34.0,26.2,30.15,SE,135,8.1,8.1,73,0.00,OVC,,0.00,WeatherDisplay:10.37,2013-01-17 11:14:00,
2013-01-17 05:19:00,33.4,25.7,30.15,NNW,338,9.2,9.2,73,0.00,OVC,,0.00,WeatherDisplay:10.37,2013-01-17 11:19:00,
2013-01-17 05:24:00,33.6,25.9,30.16,NNW,338,5.8,5.8,73,0.00,OVC,,0.00,WeatherDisplay:10.37,2013-01-17 11:24:00,
2013-01-17 05:29:00,33.3,25.2,30.16,NW,315,5.8,5.8,72,0.00,OVC,,0.00,WeatherDisplay:10.37,2013-01-17 11:29:00,
2013-01-17 05:34:00,33.1,25.0,30.16,NNW,338,5.8,5.8,72,0.00,OVC,,0.00,WeatherDisplay:10.37,2013-01-17 11:34:00,
2013-01-17 05:39:00,33.1,25.0,30.16,NW,315,5.8,5.8,72,0.00,OVC,,0.00,WeatherDisplay:10.37,2013-01-17 11:39:00,
2013-01-17 05:44:00,32.9,24.9,30.17,WNW,292,3.5,4.9,72,0.00,OVC,,0.00,WeatherDisplay:10.37,2013-01-17 11:44:00,
2013-01-17 05:49:00,32.7,25.0,30.17,NNE,22,6.2,6.2,73,0.00,OVC,,0.00,WeatherDisplay:10.37,2013-01-17 11:49:00,
2013-01-17 05:54:00,32.7,25.0,30.17,North,0,4.6,4.6,73,0.00,OVC,,0.00,WeatherDisplay:10.37,2013-01-17 11:54:00,
2013-01-17 05:59:00,32.5,24.5,30.17,NW,315,5.8,5.8,72,0.00,OVC,,0.00,WeatherDisplay:10.37,2013-01-17 11:59:00,
2013-01-17 06:04:00,32.4,24.3,30.19,North,0,6.1,6.1,72,0.00,SCT,,0.00,WeatherDisplay:10.37,2013-01-17 12:04:00,
2013-01-17 06:09:00,32.5,24.5,30.19,NW,315,9.2,9.2,72,0.00,SCT,,0.00,WeatherDisplay:10.37,2013-01-17 12:09:00,
2013-01-17 06:14:00,32.5,24.5,30.19,NNW,338,5.8,5.8,72,0.00,SCT,,0.00,WeatherDisplay:10.37,2013-01-17 12:14:00,
2013-01-17 06:19:00,32.2,24.2,30.19,NW,315,9.2,9.2,72,0.00,SCT,,0.00,WeatherDisplay:10.37,2013-01-17 12:19:00,
2013-01-17 06:24:00,32.0,23.7,30.19,NNW,338,4.6,4.9,71,0.00,SCT,,0.00,WeatherDisplay:10.37,2013-01-17 12:24:00,
2013-01-17 06:29:00,31.8,23.5,30.19,North,0,5.9,5.9,71,0.00,SCT,,0.00,WeatherDisplay:10.37,2013-01-17 12:29:00,
2013-01-17 06:34:00,31.8,23.8,30.19,NNW,338,3.6,4.7,72,0.00,SCT,,0.00,WeatherDisplay:10.37,2013-01-17 12:34:00,
2013-01-17 06:39:00,31.8,23.8,30.19,NW,315,8.1,8.1,72,0.00,SCT,,0.00,WeatherDisplay:10.37,2013-01-17 12:39:00,
2013-01-17 06:44:00,31.5,23.5,30.19,NW,315,6.9,6.9,72,0.00,SCT,,0.00,WeatherDisplay:10.37,2013-01-17 12:44:00,
2013-01-17 06:49:00,31.3,23.3,30.19,NNW,338,8.1,8.1,72,0.00,SCT,,0.00,WeatherDisplay:10.37,2013-01-17 12:49:00,
2013-01-17 06:54:00,31.1,23.1,30.19,NNW,338,4.7,4.9,72,0.00,SCT,,0.00,WeatherDisplay:10.37,2013-01-17 12:54:00,
2013-01-17 06:59:00,31.1,23.1,30.19,NNW,338,5.5,5.5,72,0.00,SCT,,0.00,WeatherDisplay:10.37,2013-01-17 12:59:00,
2013-01-17 07:04:00,31.1,22.8,30.20,NW,315,6.9,6.9,71,0.00,FEW,,0.00,WeatherDisplay:10.37,2013-01-17 13:04:00,
2013-01-17 07:09:00,31.1,22.5,30.20,NW,315,5.8,5.8,70,0.00,FEW,,0.00,WeatherDisplay:10.37,2013-01-17 13:09:00,
2013-01-17 07:14:00,31.1,22.1,30.20,North,0,2.3,3.8,69,0.00,FEW,,0.00,WeatherDisplay:10.37,2013-01-17 13:14:00,
2013-01-17 07:19:00,30.7,22.1,30.20,NNW,338,4.6,4.6,70,0.00,FEW,,0.00,WeatherDisplay:10.37,2013-01-17 13:19:00,
2013-01-17 07:24:00,30.6,21.9,30.22,NNE,22,5.8,5.8,70,0.00,FEW,,0.00,WeatherDisplay:10.37,2013-01-17 13:24:00,
2013-01-17 07:29:00,30.6,21.9,30.22,NNW,338,3.6,4.3,70,0.00,FEW,,0.00,WeatherDisplay:10.37,2013-01-17 13:29:00,
2013-01-17 07:34:00,30.6,22.3,30.22,NW,315,3.5,4.3,71,0.00,FEW,,0.00,WeatherDisplay:10.37,2013-01-17 13:34:00,
2013-01-17 07:39:00,30.4,21.8,30.22,NNW,338,7.5,7.5,70,0.00,FEW,,0.00,WeatherDisplay:10.37,2013-01-17 13:39:00,
2013-01-17 07:44:00,30.4,22.1,30.22,NNW,338,4.6,4.8,71,0.00,FEW,,0.00,WeatherDisplay:10.37,2013-01-17 13:44:00,
2013-01-17 07:49:00,30.4,22.1,30.22,NW,315,8.1,8.1,71,0.00,FEW,,0.00,WeatherDisplay:10.37,2013-01-17 13:49:00,
2013-01-17 07:54:00,30.4,21.8,30.22,North,0,10.8,10.8,70,0.00,FEW,,0.00,WeatherDisplay:10.37,2013-01-17 13:54:00,
2013-01-17 07:59:00,30.4,21.8,30.22,West,270,8.1,8.1,70,0.00,FEW,,0.00,WeatherDisplay:10.37,2013-01-17 13:59:00,
2013-01-17 08:04:00,30.4,21.8,30.23,NW,315,10.4,10.4,70,0.00,SKC,,0.00,WeatherDisplay:10.37,2013-01-17 14:04:00,
2013-01-17 08:09:00,30.6,21.9,30.23,WNW,292,12.7,12.7,70,0.00,SKC,,0.00,WeatherDisplay:10.37,2013-01-17 14:09:00,
2013-01-17 08:14:00,30.6,21.9,30.23,NW,315,8.1,8.1,70,0.00,SKC,,0.00,WeatherDisplay:10.37,2013-01-17 14:14:00,
2013-01-17 08:19:00,30.6,21.9,30.23,NNW,338,9.2,9.2,70,0.00,SKC,,0.00,WeatherDisplay:10.37,2013-01-17 14:19:00,
2013-01-17 08:24:00,30.6,21.9,30.25,NW,315,10.5,10.5,70,0.00,SKC,,0.00,WeatherDisplay:10.37,2013-01-17 14:24:00,
2013-01-17 08:29:00,30.7,21.8,30.25,NW,315,7.4,7.4,69,0.00,SKC,,0.00,WeatherDisplay:10.37,2013-01-17 14:29:00,
2013-01-17 08:34:00,30.6,21.6,30.25,North,0,5.8,6.7,69,0.00,SKC,,0.00,WeatherDisplay:10.37,2013-01-17 14:34:00,
2013-01-17 08:39:00,30.7,21.4,30.25,NW,315,12.7,12.7,68,0.00,SKC,,0.00,WeatherDisplay:10.37,2013-01-17 14:39:00,
2013-01-17 08:44:00,30.6,21.2,30.26,NW,315,9.5,9.5,68,0.00,SKC,,0.00,WeatherDisplay:10.37,2013-01-17 14:44:00,
2013-01-17 08:49:00,30.4,20.7,30.26,NW,315,8.1,8.1,67,0.00,SKC,,0.00,WeatherDisplay:10.37,2013-01-17 14:49:00,
2013-01-17 08:54:00,30.4,20.4,30.26,NW,315,10.8,10.8,66,0.00,SKC,,0.00,WeatherDisplay:10.37,2013-01-17 14:54:00,
2013-01-17 08:59:00,30.7,20.4,30.26,NW,315,6.9,6.9,65,0.00,SKC,,0.00,WeatherDisplay:10.37,2013-01-17 14:59:00,
2013-01-17 09:04:00,30.6,19.8,30.28,NW,315,8.1,8.1,64,0.00,SKC,,0.00,WeatherDisplay:10.37,2013-01-17 15:04:00,
2013-01-17 09:09:00,30.7,20.0,30.28,North,0,10.4,10.4,64,0.00,SKC,,0.00,WeatherDisplay:10.37,2013-01-17 15:09:00,
2013-01-17 09:14:00,30.7,20.4,30.28,NW,315,8.1,8.1,65,0.00,SKC,,0.00,WeatherDisplay:10.37,2013-01-17 15:14:00,
2013-01-17 09:19:00,31.1,20.3,30.28,NNE,22,9.2,9.2,64,0.00,SKC,,0.00,WeatherDisplay:10.37,2013-01-17 15:19:00,
2013-01-17 09:24:00,31.1,20.0,30.28,NW,315,6.9,6.9,63,0.00,SKC,,0.00,WeatherDisplay:10.37,2013-01-17 15:24:00,
2013-01-17 09:29:00,31.1,19.2,30.28,North,0,5.8,5.8,61,0.00,SKC,,0.00,WeatherDisplay:10.37,2013-01-17 15:29:00,
2013-01-17 09:34:00,31.3,19.4,30.28,NW,315,9.7,9.7,61,0.00,SKC,,0.00,WeatherDisplay:10.37,2013-01-17 15:34:00,
2013-01-17 09:39:00,31.1,19.2,30.28,NW,315,10.4,10.4,61,0.00,SKC,,0.00,WeatherDisplay:10.37,2013-01-17 15:39:00,
2013-01-17 09:44:00,31.1,19.2,30.30,North,0,9.2,9.2,61,0.00,SKC,,0.00,WeatherDisplay:10.37,2013-01-17 15:44:00,
2013-01-17 09:49:00,31.1,18.4,30.30,NNE,22,8.5,8.5,59,0.00,SKC,,0.00,WeatherDisplay:10.37,2013-01-17 15:49:00,
2013-01-17 09:54:00,31.1,18.8,30.30,NNW,338,6.9,6.9,60,0.00,SKC,,0.00,WeatherDisplay:10.37,2013-01-17 15:54:00,
2013-01-17 09:59:00,31.1,18.8,30.30,NW,315,11.8,11.8,60,0.00,SKC,,0.00,WeatherDisplay:10.37,2013-01-17 15:59:00,
2013-01-17 10:04:00,31.1,18.8,30.31,NW,315,11.8,11.8,60,0.00,SKC,,0.00,WeatherDisplay:10.37,2013-01-17 16:04:00,
2013-01-17 10:09:00,30.9,18.7,30.31,North,0,9.2,9.2,60,0.00,SKC,,0.00,WeatherDisplay:10.37,2013-01-17 16:09:00,
2013-01-17 10:14:00,31.1,19.2,30.31,NW,315,9.2,9.2,61,0.00,SKC,,0.00,WeatherDisplay:10.37,2013-01-17 16:14:00,
2013-01-17 10:19:00,31.1,19.2,30.31,NW,315,14.1,14.1,61,0.00,SKC,,0.00,WeatherDisplay:10.37,2013-01-17 16:19:00,
2013-01-17 10:24:00,31.1,19.2,30.31,North,0,9.2,9.2,61,0.00,SKC,,0.00,WeatherDisplay:10.37,2013-01-17 16:24:00,
2013-01-17 10:29:00,31.5,18.8,30.31,NNE,22,8.1,8.1,59,0.00,SKC,,0.00,WeatherDisplay:10.37,2013-01-17 16:29:00,
2013-01-17 10:34:00,31.5,18.8,30.31,NNW,338,8.1,8.1,59,0.00,SKC,,0.00,WeatherDisplay:10.37,2013-01-17 16:34:00,
2013-01-17 10:39:00,31.5,18.8,30.31,NW,315,8.1,8.1,59,0.00,SKC,,0.00,WeatherDisplay:10.37,2013-01-17 16:39:00,
2013-01-17 10:44:00,31.3,19.0,30.33,North,0,8.1,8.1,60,0.00,SKC,,0.00,WeatherDisplay:10.37,2013-01-17 16:44:00,
2013-01-17 10:49:00,31.5,19.2,30.33,NNE,22,8.1,8.1,60,0.00,SKC,,0.00,WeatherDisplay:10.37,2013-01-17 16:49:00,
2013-01-17 10:54:00,31.5,19.2,30.33,NW,315,6.9,6.9,60,0.00,SKC,,0.00,WeatherDisplay:10.37,2013-01-17 16:54:00,
2013-01-17 10:59:00,31.5,18.8,30.33,NNE,22,8.1,8.1,59,0.00,SKC,,0.00,WeatherDisplay:10.37,2013-01-17 16:59:00,
2013-01-17 11:04:00,31.5,18.4,30.34,NNW,338,13.8,13.8,58,0.00,SKC,,0.00,WeatherDisplay:10.37,2013-01-17 17:04:00,
2013-01-17 11:09:00,31.5,18.8,30.34,NW,315,8.1,8.1,59,0.00,SKC,,0.00,WeatherDisplay:10.37,2013-01-17 17:09:00,
2013-01-17 11:14:00,31.8,19.1,30.34,NNW,338,9.2,9.2,59,0.00,SKC,,0.00,WeatherDisplay:10.37,2013-01-17 17:14:00,
2013-01-17 11:19:00,31.8,18.7,30.34,NNW,338,8.2,8.2,58,0.00,SKC,,0.00,WeatherDisplay:10.37,2013-01-17 17:19:00,
2013-01-17 11:24:00,31.6,18.9,30.33,NNE,22,9.2,9.2,59,0.00,SKC,,0.00,WeatherDisplay:10.37,2013-01-17 17:24:00,
2013-01-17 11:29:00,32.0,18.9,30.33,NW,315,11.8,11.8,58,0.00,SKC,,0.00,WeatherDisplay:10.37,2013-01-17 17:29:00,
2013-01-17 11:34:00,31.8,18.7,30.33,NW,315,11.5,11.5,58,0.00,SKC,,0.00,WeatherDisplay:10.37,2013-01-17 17:34:00,
2013-01-17 11:39:00,31.5,18.4,30.33,NNW,338,8.1,8.1,58,0.00,SKC,,0.00,WeatherDisplay:10.37,2013-01-17 17:39:00,
2013-01-17 11:44:00,31.3,17.8,30.34,NNE,22,10.4,10.4,57,0.00,SKC,,0.00,WeatherDisplay:10.37,2013-01-17 17:44:00,
2013-01-17 11:49:00,31.1,17.6,30.34,NNW,338,11.5,11.5,57,0.00,SKC,,0.00,WeatherDisplay:10.37,2013-01-17 17:49:00,
2013-01-17 11:54:00,31.1,17.6,30.34,NNW,338,9.2,9.2,57,0.00,SKC,,0.00,WeatherDisplay:10.37,2013-01-17 17:54:00,
2013-01-17 11:59:00,31.1,16.4,30.34,NW,315,16.1,16.1,54,0.00,SKC,,0.00,WeatherDisplay:10.37,2013-01-17 17:59:00,
2013-01-17 12:04:00,31.1,16.8,30.34,NNE,22,13.8,13.8,55,0.00,SKC,,0.00,WeatherDisplay:10.37,2013-01-17 18:04:00,
2013-01-17 12:09:00,31.1,16.8,30.34,NNE,22,13.8,13.8,55,0.00,SKC,,0.00,WeatherDisplay:10.37,2013-01-17 18:09:00,
2013-01-17 12:14:00,31.5,15.8,30.34,NNW,338,13.8,13.8,52,0.00,SKC,,0.00,WeatherDisplay:10.37,2013-01-17 18:14:00,
2013-01-17 12:19:00,31.1,15.9,30.34,NW,315,9.2,9.2,53,0.00,SKC,,0.00,WeatherDisplay:10.37,2013-01-17 18:19:00,
2013-01-17 12:24:00,31.3,15.7,30.33,NW,315,8.1,8.1,52,0.00,SKC,,0.00,WeatherDisplay:10.37,2013-01-17 18:24:00,
2013-01-17 12:30:00,31.5,16.3,30.33,NNW,338,12.7,12.7,53,0.00,SKC,,0.00,WeatherDisplay:10.37,2013-01-17 18:30:00,
2013-01-17 12:35:00,31.1,15.5,30.33,West,270,11.5,11.5,52,0.00,SKC,,0.00,WeatherDisplay:10.37,2013-01-17 18:35:00,
2013-01-17 12:40:00,31.3,15.7,30.33,NNW,338,11.8,11.8,52,0.00,SKC,,0.00,WeatherDisplay:10.37,2013-01-17 18:40:00,
2013-01-17 12:45:00,31.5,15.8,30.33,NW,315,10.4,10.4,52,0.00,SKC,,0.00,WeatherDisplay:10.37,2013-01-17 18:45:00,
2013-01-17 12:50:00,31.5,15.8,30.33,NNW,338,12.7,12.7,52,0.00,SKC,,0.00,WeatherDisplay:10.37,2013-01-17 18:50:00,
2013-01-17 12:55:00,31.6,16.0,30.33,NNE,22,10.4,10.4,52,0.00,SKC,,0.00,WeatherDisplay:10.37,2013-01-17 18:55:00,
2013-01-17 13:00:00,31.8,15.7,30.33,North,358,7.0,8.0,51,0.00,SKC,,0.00,WeatherDisplay:10.37,2013-01-17 19:00:00,
2013-01-17 13:05:00,31.8,16.2,30.33,NNW,334,6.0,9.0,52,0.00,SKC,,0.00,WeatherDisplay:10.37,2013-01-17 19:05:00,
2013-01-17 13:10:00,32.0,15.9,30.33,NNE,22,11.8,11.8,51,0.00,SKC,,0.00,WeatherDisplay:10.37,2013-01-17 19:10:00,
2013-01-17 13:15:00,32.0,15.9,30.33,NNW,346,7.0,12.0,51,0.00,SKC,,0.00,WeatherDisplay:10.37,2013-01-17 19:15:00,
2013-01-17 13:20:00,32.5,15.9,30.33,NNE,22,9.2,9.2,50,0.00,SKC,,0.00,WeatherDisplay:10.37,2013-01-17 19:20:00,
2013-01-17 13:25:00,32.2,15.6,30.33,NNW,338,10.4,10.4,50,0.00,SKC,,0.00,WeatherDisplay:10.37,2013-01-17 19:25:00,
2013-01-17 13:30:00,31.8,15.3,30.33,NW,315,6.1,6.4,50,0.00,SKC,,0.00,WeatherDisplay:10.37,2013-01-17 19:30:00,
2013-01-17 13:35:00,31.8,15.3,30.33,North,350,6.0,7.0,50,0.00,SKC,,0.00,WeatherDisplay:10.37,2013-01-17 19:35:00,
2013-01-17 13:40:00,32.2,16.1,30.33,North,356,6.0,10.0,51,0.00,SKC,,0.00,WeatherDisplay:10.37,2013-01-17 19:40:00,
2013-01-17 13:45:00,32.2,15.6,30.33,NNW,338,5.8,6.7,50,0.00,SKC,,0.00,WeatherDisplay:10.37,2013-01-17 19:45:00,
2013-01-17 13:50:00,32.2,15.6,30.33,North,0,8.1,8.1,50,0.00,SKC,,0.00,WeatherDisplay:10.37,2013-01-17 19:50:00,
2013-01-17 13:55:00,32.2,16.1,30.33,NNE,22,8.1,8.1,51,0.00,SKC,,0.00,WeatherDisplay:10.37,2013-01-17 19:55:00,
2013-01-17 14:00:00,32.5,16.4,30.33,NNE,22,12.0,12.0,51,0.00,SKC,,0.00,WeatherDisplay:10.37,2013-01-17 20:00:00,
2013-01-17 14:05:00,32.4,15.8,30.33,NW,315,10.4,10.4,50,0.00,SKC,,0.00,WeatherDisplay:10.37,2013-01-17 20:05:00,
2013-01-17 14:10:00,31.8,14.8,30.33,NW,315,13.8,13.8,49,0.00,SKC,,0.00,WeatherDisplay:10.37,2013-01-17 20:10:00,
2013-01-17 14:15:00,31.8,15.3,30.33,NW,315,11.5,11.5,50,0.00,SKC,,0.00,WeatherDisplay:10.37,2013-01-17 20:15:00,
2013-01-17 14:20:00,31.8,15.7,30.33,NNE,22,8.1,8.1,51,0.00,SKC,,0.00,WeatherDisplay:10.37,2013-01-17 20:20:00,
2013-01-17 14:25:00,31.8,15.7,30.34,NNW,338,5.8,6.0,51,0.00,SKC,,0.00,WeatherDisplay:10.37,2013-01-17 20:25:00,
2013-01-17 14:30:00,31.8,15.7,30.34,NNE,22,8.1,8.1,51,0.00,SKC,,0.00,WeatherDisplay:10.37,2013-01-17 20:30:00,
2013-01-17 14:35:00,31.8,15.7,30.34,NNE,22,8.1,8.1,51,0.00,SKC,,0.00,WeatherDisplay:10.37,2013-01-17 20:35:00,
2013-01-17 14:40:00,31.8,15.7,30.34,NNW,338,10.4,10.4,51,0.00,SKC,,0.00,WeatherDisplay:10.37,2013-01-17 20:40:00,
2013-01-17 14:45:00,31.5,15.8,30.34,WSW,248,10.4,10.4,52,0.00,SKC,,0.00,WeatherDisplay:10.37,2013-01-17 20:45:00,
2013-01-17 14:50:00,31.8,16.2,30.34,NW,315,11.5,11.5,52,0.00,SKC,,0.00,WeatherDisplay:10.37,2013-01-17 20:50:00,
2013-01-17 14:55:00,31.5,15.8,30.34,NNE,22,9.2,9.2,52,0.00,SKC,,0.00,WeatherDisplay:10.37,2013-01-17 20:55:00,
2013-01-17 15:00:00,31.3,15.7,30.34,NNW,338,6.9,6.9,52,0.00,SKC,,0.00,WeatherDisplay:10.37,2013-01-17 21:00:00,
2013-01-17 15:05:00,31.1,15.5,30.35,NE,45,9.2,9.2,52,0.00,SKC,,0.00,WeatherDisplay:10.37,2013-01-17 21:05:00,
2013-01-17 15:10:00,31.1,15.5,30.35,NW,315,6.9,6.9,52,0.00,SKC,,0.00,WeatherDisplay:10.37,2013-01-17 21:10:00,
2013-01-17 15:15:00,31.1,15.5,30.35,NW,315,9.2,9.2,52,0.00,SKC,,0.00,WeatherDisplay:10.37,2013-01-17 21:15:00,
2013-01-17 15:20:00,30.6,15.0,30.35,North,0,11.5,11.5,52,0.00,SKC,,0.00,WeatherDisplay:10.37,2013-01-17 21:20:00,
2013-01-17 15:25:00,30.4,15.3,30.35,North,0,10.8,10.8,53,0.00,SKC,,0.00,WeatherDisplay:10.37,2013-01-17 21:25:00,
2013-01-17 15:30:00,30.2,15.1,30.35,North,0,4.6,5.6,53,0.00,SKC,,0.00,WeatherDisplay:10.37,2013-01-17 21:30:00,
2013-01-17 15:35:00,30.0,14.9,30.35,NNE,22,8.4,8.4,53,0.00,SKC,,0.00,WeatherDisplay:10.37,2013-01-17 21:35:00,
2013-01-17 15:40:00,30.0,14.9,30.35,NNE,22,9.2,9.2,53,0.00,SKC,,0.00,WeatherDisplay:10.37,2013-01-17 21:40:00,
2013-01-17 15:45:00,29.7,14.6,30.37,North,0,10.4,10.4,53,0.00,SKC,,0.00,WeatherDisplay:10.37,2013-01-17 21:45:00,
2013-01-17 15:50:00,29.7,14.6,30.37,NNE,22,6.0,6.0,53,0.00,SKC,,0.00,WeatherDisplay:10.37,2013-01-17 21:50:00,
2013-01-17 15:55:00,29.3,14.3,30.37,NNW,338,8.1,8.1,53,0.00,SKC,,0.00,WeatherDisplay:10.37,2013-01-17 21:55:00,
2013-01-17 16:00:00,29.3,14.7,30.37,NW,315,4.6,4.9,54,0.00,SKC,,0.00,WeatherDisplay:10.37,2013-01-17 22:00:00,
2013-01-17 16:05:00,29.3,14.7,30.35,NNW,338,11.5,11.5,54,0.00,FEW,,0.00,WeatherDisplay:10.37,2013-01-17 22:05:00,
2013-01-17 16:10:00,28.9,14.4,30.35,NW,315,9.2,9.2,54,0.00,FEW,,0.00,WeatherDisplay:10.37,2013-01-17 22:10:00,
2013-01-17 16:15:00,28.9,14.4,30.35,NNW,338,6.9,6.9,54,0.00,FEW,,0.00,WeatherDisplay:10.37,2013-01-17 22:15:00,
2013-01-17 16:20:00,28.6,14.0,30.35,NNE,22,10.4,10.4,54,0.00,FEW,,0.00,WeatherDisplay:10.37,2013-01-17 22:20:00,
2013-01-17 16:25:00,28.6,14.0,30.31,NNW,338,5.8,5.8,54,0.00,FEW,,0.00,WeatherDisplay:10.37,2013-01-17 22:25:00,
2013-01-17 16:30:00,28.6,14.0,30.31,NW,315,5.8,5.8,54,0.00,FEW,,0.00,WeatherDisplay:10.37,2013-01-17 22:30:00,
2013-01-17 16:35:00,28.2,14.1,30.31,NNE,22,8.1,8.1,55,0.00,FEW,,0.00,WeatherDisplay:10.37,2013-01-17 22:35:00,
2013-01-17 16:40:00,28.0,13.9,30.31,NNW,338,4.6,4.6,55,0.00,FEW,,0.00,WeatherDisplay:10.37,2013-01-17 22:40:00,
2013-01-17 16:45:00,27.9,13.3,30.30,NW,315,3.5,3.5,54,0.00,FEW,,0.00,WeatherDisplay:10.37,2013-01-17 22:45:00,
2013-01-17 16:50:00,27.9,13.8,30.30,NW,315,4.6,4.6,55,0.00,FEW,,0.00,WeatherDisplay:10.37,2013-01-17 22:50:00,
2013-01-17 16:55:00,27.7,13.6,30.30,NW,315,2.3,2.3,55,0.00,FEW,,0.00,WeatherDisplay:10.37,2013-01-17 22:55:00,
2013-01-17 17:00:00,27.5,13.4,30.30,NNW,338,2.3,2.3,55,0.00,FEW,,0.00,WeatherDisplay:10.37,2013-01-17 23:00:00,
2013-01-17 17:05:00,27.5,13.8,30.31,NNW,338,2.3,2.3,56,0.00,SKC,,0.00,WeatherDisplay:10.37,2013-01-17 23:05:00,
2013-01-17 17:10:00,27.1,13.5,30.31,NW,315,2.3,2.3,56,0.00,SKC,,0.00,WeatherDisplay:10.37,2013-01-17 23:10:00,
2013-01-17 17:15:00,27.1,13.9,30.31,NW,315,4.7,4.7,57,0.00,SKC,,0.00,WeatherDisplay:10.37,2013-01-17 23:15:00,
2013-01-17 17:20:00,26.8,13.6,30.31,North,0,4.6,4.6,57,0.00,SKC,,0.00,WeatherDisplay:10.37,2013-01-17 23:20:00,
2013-01-17 17:25:00,26.8,13.6,30.32,NNW,338,2.3,2.3,57,0.00,SKC,,0.00,WeatherDisplay:10.37,2013-01-17 23:25:00,
2013-01-17 17:30:00,26.8,13.6,30.32,NW,315,3.5,3.5,57,0.00,SKC,,0.00,WeatherDisplay:10.37,2013-01-17 23:30:00,
2013-01-17 17:35:00,26.8,14.0,30.32,SSW,202,3.5,3.5,58,0.00,SKC,,0.00,WeatherDisplay:10.37,2013-01-17 23:35:00,
2013-01-17 17:40:00,26.8,14.0,30.32,North,0,2.3,2.3,58,0.00,SKC,,0.00,WeatherDisplay:10.37,2013-01-17 23:40:00,
2013-01-17 17:45:00,26.2,13.1,30.32,North,0,1.2,1.2,57,0.00,SKC,,0.00,WeatherDisplay:10.37,2013-01-17 23:45:00,
2013-01-17 17:50:00,26.2,13.5,30.32,NW,315,3.5,3.5,58,0.00,SKC,,0.00,WeatherDisplay:10.37,2013-01-17 23:50:00,
2013-01-17 17:55:00,26.4,13.6,30.32,North,0,1.2,1.2,58,0.00,SKC,,0.00,WeatherDisplay:10.37,2013-01-17 23:55:00,
2013-01-17 18:00:00,26.2,13.5,30.32,NW,315,1.6,1.6,58,0.00,SKC,,0.00,WeatherDisplay:10.37,2013-01-18 00:00:00,
2013-01-17 18:05:00,26.1,13.3,30.32,NW,315,3.6,3.6,58,0.00,SKC,,0.00,WeatherDisplay:10.37,2013-01-18 00:05:00,
2013-01-17 18:10:00,26.1,13.3,30.32,NW,315,2.3,2.3,58,0.00,SKC,,0.00,WeatherDisplay:10.37,2013-01-18 00:10:00,
2013-01-17 18:15:00,26.1,13.7,30.32,NW,315,1.2,1.2,59,0.00,SKC,,0.00,WeatherDisplay:10.37,2013-01-18 00:15:00,
2013-01-17 18:20:00,26.1,13.7,30.32,North,0,2.4,2.4,59,0.00,SKC,,0.00,WeatherDisplay:10.37,2013-01-18 00:20:00,
2013-01-17 18:25:00,25.7,13.3,30.33,NW,315,2.3,2.3,59,0.00,SKC,,0.00,WeatherDisplay:10.37,2013-01-18 00:25:00,
2013-01-17 18:30:00,25.5,13.2,30.33,NNE,22,3.5,3.5,59,0.00,SKC,,0.00,WeatherDisplay:10.37,2013-01-18 00:30:00,
2013-01-17 18:35:00,25.3,13.4,30.33,WNW,292,3.5,3.5,60,0.00,SKC,,0.00,WeatherDisplay:10.37,2013-01-18 00:35:00,
2013-01-17 18:40:00,25.2,13.2,30.33,WSW,248,1.2,1.2,60,0.00,SKC,,0.00,WeatherDisplay:10.37,2013-01-18 00:40:00,
2013-01-17 18:45:00,25.0,13.0,30.34,West,270,1.2,1.2,60,0.00,SKC,,0.00,WeatherDisplay:10.37,2013-01-18 00:45:00,
2013-01-17 18:50:00,24.8,12.9,30.34,West,270,1.2,1.2,60,0.00,SKC,,0.00,WeatherDisplay:10.37,2013-01-18 00:50:00,
2013-01-17 18:55:00,24.6,13.1,30.34,NW,315,1.3,1.3,61,0.00,SKC,,0.00,WeatherDisplay:10.37,2013-01-18 00:55:00,
2013-01-17 19:00:00,24.3,13.1,30.34,NW,315,2.0,2.0,62,0.00,SKC,,0.00,WeatherDisplay:10.37,2013-01-18 01:00:00,
2013-01-17 19:05:00,23.9,12.8,30.34,WNW,292,1.2,1.2,62,0.00,SKC,,0.00,WeatherDisplay:10.37,2013-01-18 01:05:00,
2013-01-17 19:10:00,23.9,13.1,30.34,WSW,248,2.3,2.3,63,0.00,SKC,,0.00,WeatherDisplay:10.37,2013-01-18 01:10:00,
2013-01-17 19:15:00,23.9,13.1,30.34,SW,225,0.0,0.7,63,0.00,SKC,,0.00,WeatherDisplay:10.37,2013-01-18 01:15:00,
2013-01-17 19:20:00,23.9,13.5,30.34,WSW,248,0.0,0.3,64,0.00,SKC,,0.00,WeatherDisplay:10.37,2013-01-18 01:20:00,
2013-01-17 19:25:00,23.5,13.1,30.35,WSW,248,1.2,1.2,64,0.00,SKC,,0.00,WeatherDisplay:10.37,2013-01-18 01:25:00,
2013-01-17 19:31:00,23.4,13.3,30.35,WSW,248,1.2,1.2,65,0.00,SKC,,0.00,WeatherDisplay:10.37,2013-01-18 01:31:00,
2013-01-17 19:36:00,23.4,13.3,30.35,West,270,3.6,3.6,65,0.00,SKC,,0.00,WeatherDisplay:10.37,2013-01-18 01:36:00,
2013-01-17 19:41:00,23.5,13.5,30.35,West,270,2.3,2.3,65,0.00,SKC,,0.00,WeatherDisplay:10.37,2013-01-18 01:41:00,
2013-01-17 19:46:00,23.2,13.1,30.35,West,270,5.8,5.8,65,0.00,SKC,,0.00,WeatherDisplay:10.37,2013-01-18 01:46:00,
2013-01-17 19:51:00,23.5,13.1,30.35,WNW,292,4.6,4.6,64,0.00,SKC,,0.00,WeatherDisplay:10.37,2013-01-18 01:51:00,
2013-01-17 19:56:00,23.9,13.5,30.35,WSW,248,1.2,1.5,64,0.00,SKC,,0.00,WeatherDisplay:10.37,2013-01-18 01:56:00,
2013-01-17 20:01:00,23.5,12.8,30.35,NW,315,1.8,1.8,63,0.00,SKC,,0.00,WeatherDisplay:10.37,2013-01-18 02:01:00,
2013-01-17 20:06:00,23.5,12.8,30.35,SW,225,1.6,1.6,63,0.00,SKC,,0.00,WeatherDisplay:10.37,2013-01-18 02:06:00,
2013-01-17 20:11:00,23.4,12.6,30.35,WSW,248,0.0,0.6,63,0.00,SKC,,0.00,WeatherDisplay:10.37,2013-01-18 02:11:00,
2013-01-17 20:16:00,23.5,12.8,30.35,SW,225,1.2,1.2,63,0.00,SKC,,0.00,WeatherDisplay:10.37,2013-01-18 02:16:00,
2013-01-17 20:21:00,23.2,12.8,30.36,WNW,292,1.2,1.2,64,0.00,SKC,,0.00,WeatherDisplay:10.37,2013-01-18 02:21:00,
2013-01-17 20:26:00,23.2,12.8,30.36,WSW,248,2.3,2.3,64,0.00,SKC,,0.00,WeatherDisplay:10.37,2013-01-18 02:26:00,
2013-01-17 20:31:00,23.2,12.8,30.36,WSW,248,4.6,4.6,64,0.00,SKC,,0.00,WeatherDisplay:10.37,2013-01-18 02:31:00,
2013-01-17 20:36:00,23.2,12.8,30.36,West,270,3.5,3.5,64,0.00,SKC,,0.00,WeatherDisplay:10.37,2013-01-18 02:36:00,
2013-01-17 20:41:00,23.4,13.0,30.37,SW,225,2.3,2.3,64,0.00,SKC,,0.00,WeatherDisplay:10.37,2013-01-18 02:41:00,
2013-01-17 20:46:00,23.2,12.8,30.37,WNW,292,2.3,2.3,64,0.00,SKC,,0.00,WeatherDisplay:10.37,2013-01-18 02:46:00,
2013-01-17 20:51:00,23.2,12.8,30.37,West,270,1.2,1.7,64,0.00,SKC,,0.00,WeatherDisplay:10.37,2013-01-18 02:51:00,
2013-01-17 20:56:00,23.2,12.8,30.37,West,270,2.8,2.8,64,0.00,SKC,,0.00,WeatherDisplay:10.37,2013-01-18 02:56:00,
2013-01-17 21:01:00,23.4,13.0,30.37,NW,315,3.5,3.5,64,0.00,SKC,,0.00,WeatherDisplay:10.37,2013-01-18 03:01:00,
2013-01-17 21:06:00,23.4,13.0,30.37,WSW,248,0.0,1.7,64,0.00,SKC,,0.00,WeatherDisplay:10.37,2013-01-18 03:06:00,
2013-01-17 21:11:00,23.4,13.0,30.37,West,270,2.3,2.3,64,0.00,SKC,,0.00,WeatherDisplay:10.37,2013-01-18 03:11:00,
2013-01-17 21:16:00,23.2,12.8,30.37,WNW,292,1.2,1.2,64,0.00,SKC,,0.00,WeatherDisplay:10.37,2013-01-18 03:16:00,
2013-01-17 21:21:00,23.2,12.8,30.38,WSW,248,3.5,3.5,64,0.00,SKC,,0.00,WeatherDisplay:10.37,2013-01-18 03:21:00,
2013-01-17 21:26:00,23.2,12.8,30.38,West,270,2.3,2.3,64,0.00,SKC,,0.00,WeatherDisplay:10.37,2013-01-18 03:26:00,
2013-01-17 21:31:00,22.8,12.5,30.38,SW,225,1.2,1.3,64,0.00,SKC,,0.00,WeatherDisplay:10.37,2013-01-18 03:31:00,
2013-01-17 21:36:00,22.6,12.3,30.38,WSW,248,1.2,1.2,64,0.00,SKC,,0.00,WeatherDisplay:10.37,2013-01-18 03:36:00,
2013-01-17 21:41:00,22.6,12.3,30.38,WSW,248,2.3,2.3,64,0.00,SKC,,0.00,WeatherDisplay:10.37,2013-01-18 03:41:00,
2013-01-17 21:46:00,22.6,12.6,30.38,WSW,248,2.3,2.3,65,0.00,SKC,,0.00,WeatherDisplay:10.37,2013-01-18 03:46:00,
2013-01-17 21:51:00,22.5,12.5,30.38,WSW,248,2.3,2.3,65,0.00,SKC,,0.00,WeatherDisplay:10.37,2013-01-18 03:51:00,
2013-01-17 21:56:00,22.5,12.5,30.38,WSW,248,1.2,1.2,65,0.00,SKC,,0.00,WeatherDisplay:10.37,2013-01-18 03:56:00,
2013-01-17 22:01:00,22.5,12.5,30.37,WSW,248,2.3,2.3,65,0.00,SKC,,0.00,WeatherDisplay:10.37,2013-01-18 04:01:00,
2013-01-17 22:06:00,22.5,12.8,30.37,WSW,248,0.0,0.9,66,0.00,SKC,,0.00,WeatherDisplay:10.37,2013-01-18 04:06:00,
2013-01-17 22:11:00,22.5,12.8,30.37,SW,225,0.0,0.3,66,0.00,SKC,,0.00,WeatherDisplay:10.37,2013-01-18 04:11:00,
2013-01-17 22:16:00,22.1,12.5,30.37,South,180,1.4,1.4,66,0.00,SKC,,0.00,WeatherDisplay:10.37,2013-01-18 04:16:00,
2013-01-17 22:21:00,21.9,12.3,30.37,South,180,0.0,0.2,66,0.00,SKC,,0.00,WeatherDisplay:10.37,2013-01-18 04:21:00,
2013-01-17 22:26:00,21.7,12.1,30.37,South,180,0.0,0.2,66,0.00,SKC,,0.00,WeatherDisplay:10.37,2013-01-18 04:26:00,
2013-01-17 22:31:00,21.7,12.1,30.37,South,180,0.0,0.0,66,0.00,SKC,,0.00,WeatherDisplay:10.37,2013-01-18 04:31:00,
2013-01-17 22:36:00,21.4,12.1,30.37,South,180,0.0,0.0,67,0.00,SKC,,0.00,WeatherDisplay:10.37,2013-01-18 04:36:00,
2013-01-17 22:41:00,21.0,12.1,30.37,SSW,202,0.0,0.0,68,0.00,SKC,,0.00,WeatherDisplay:10.37,2013-01-18 04:41:00,
2013-01-17 22:46:00,21.0,12.1,30.37,South,180,0.0,0.0,68,0.00,SKC,,0.00,WeatherDisplay:10.37,2013-01-18 04:46:00,
2013-01-17 22:51:00,20.7,11.8,30.37,SW,225,0.0,0.0,68,0.00,SKC,,0.00,WeatherDisplay:10.37,2013-01-18 04:51:00,
2013-01-17 22:56:00,20.5,11.6,30.37,South,180,0.0,0.0,68,0.00,SKC,,0.00,WeatherDisplay:10.37,2013-01-18 04:56:00,
2013-01-17 23:00:00,20.7,12.1,30.37,South,180,0.0,0.0,69,0.00,SKC,,0.00,WeatherDisplay:10.37,2013-01-18 05:00:00,
2013-01-17 23:01:00,20.7,12.1,30.37,South,180,0.0,0.0,69,0.00,SKC,,0.00,WeatherDisplay:10.37,2013-01-18 05:01:00,
2013-01-17 23:02:00,20.3,11.7,30.37,South,180,0.0,0.0,69,0.00,SKC,,0.00,WeatherDisplay:10.37,2013-01-18 05:02:00,
2013-01-17 23:03:00,20.3,11.7,30.37,South,180,0.0,0.0,69,0.00,SKC,,0.00,WeatherDisplay:10.37,2013-01-18 05:03:00,
2013-01-17 23:08:00,20.1,11.6,30.37,SSE,158,0.0,0.0,69,0.00,SKC,,0.00,WeatherDisplay:10.37,2013-01-18 05:08:00,
2013-01-17 23:13:00,19.9,11.4,30.37,South,180,0.0,0.0,69,0.00,SKC,,0.00,WeatherDisplay:10.37,2013-01-18 05:13:00,
2013-01-17 23:18:00,19.9,11.7,30.37,SW,225,0.0,0.0,70,0.00,SKC,,0.00,WeatherDisplay:10.37,2013-01-18 05:18:00,
2013-01-17 23:23:00,19.8,11.9,30.35,SW,225,0.0,0.0,71,0.00,SKC,,0.00,WeatherDisplay:10.37,2013-01-18 05:23:00,
2013-01-17 23:28:00,19.6,11.7,30.35,SW,225,0.0,0.0,71,0.00,SKC,,0.00,WeatherDisplay:10.37,2013-01-18 05:28:00,
2013-01-17 23:33:00,19.6,11.7,30.35,SSE,158,0.0,0.0,71,0.00,SKC,,0.00,WeatherDisplay:10.37,2013-01-18 05:33:00,
2013-01-17 23:38:00,19.6,11.7,30.35,SE,135,0.0,0.0,71,0.00,SKC,,0.00,WeatherDisplay:10.37,2013-01-18 05:38:00,
2013-01-17 23:43:00,19.2,11.7,30.36,SSE,158,0.0,0.0,72,0.00,SKC,,0.00,WeatherDisplay:10.37,2013-01-18 05:43:00,
2013-01-17 23:48:00,19.2,11.7,30.36,SSE,158,0.0,0.0,72,0.00,SKC,,0.00,WeatherDisplay:10.37,2013-01-18 05:48:00,
2013-01-17 23:53:00,19.0,11.5,30.36,SSW,202,0.0,0.0,72,0.00,SKC,,0.00,WeatherDisplay:10.37,2013-01-18 05:53:00,
2013-01-17 23:58:00,19.0,11.8,30.36,South,180,0.0,0.0,73,0.00,SKC,,0.00,WeatherDisplay:10.37,2013-01-18 05:58:00,